Regional Weather Roundup
Issued by NWS

Home | Current Version | Previous Version | Text Only | Print | Product List | Glossary On
Versions: 1 2 3 4 5 6 7 8 9 10 11 12 13 14 15 16 17 18 19 20 21 22 23 24 25 26 27 28 29 30 31 32 33 34 35 36 37 38 39 40 41 42 43 44 45 46 47 48 49 50
000
ASHW40 PHFO 210112
RWRHI

WEATHER ROUNDUP FOR HAWAII
NATIONAL WEATHER SERVICE HONOLULU HI
300 PM HST WED SEP 20 2017

THIS IS AN AUTOMATED REPORT THAT HAS NOT BEEN QUALITY CONTROLLED.

NOTE..."FAIR" INDICATES FEW OR NO CLOUDS BELOW 12,000 FEET WITH NO
SIGNIFICANT WEATHER AND/OR OBSTRUCTIONS TO VISIBILITY.

* - THESE SITES REPORT LIMITED FIELDS
# - BUOY DATA PROVIDED BY PACIFIC ISLANDS OCEAN OBSERVING SYSTEM.

HIZ001>004-210200-
KAUAI-NIIHAU-

CITY           SKY/WX    TMP DP  RH WIND       PRES   REMARKS
LIHUE APT      PTSUNNY   86  69  56 NE15      30.03F HX  90
PORT ALLEN*      N/A     88 N/A N/A E22G29      N/A
POIPU*           N/A     86 N/A N/A NE10G20     N/A
PRINCEVILLE*     N/A     81 N/A N/A E13G21      N/A
KOKOLE POINT*  NOT AVBL
MOLOAA DAIRY*    N/A     88  70  55 E6G17       N/A  HX  92
WAIMEA HTS*    NOT AVBL
PUU OPAE*      NOT AVBL
PUU LUA*       NOT AVBL
MAKAHA RIDGE*  NOT AVBL
$$

HIZ005>011-210200-
OAHU-

CITY           SKY/WX    TMP DP  RH WIND       PRES   REMARKS
HONOLULU       MOSUNNY   88  64  44 NE20G25   29.98F
KALAELOA       SUNNY     89  65  44 NE12G20   29.99S HX  91
KANEOHE MCB    NOT AVBL
WHEELER FIELD  FAIR      83  65  53 E8        30.00S
BELLOWS*       NOT AVBL
KAHUKU*        NOT AVBL
WHEELER*       NOT AVBL
WAIANAE HARBOR NOT AVBL
DILLINGHAM*      N/A     84  63  48 SW9G16      N/A
KAHUKU TRN*      N/A     88  72  58 W10G23      N/A  HX  94
KAWAILOA*        N/A     79  64  61 E16G28      N/A
KII*             N/A     82  70  65 E17G23      N/A
MAKUA RANGE*     N/A     91  66  43 W6G15       N/A  HX  94
OAHU FOREST NW NOT AVBL
SCHOFIELD BRK*   N/A     68  52  56 MISG        N/A
SCHOFIELD S*   NOT AVBL
WAIANAE VLY*   NOT AVBL
KUAOKALA*      NOT AVBL
HONOULIUULI*   NOT AVBL
MOKUOLOE IS*   NOT AVBL
PALEHUA*       NOT AVBL
WAIAWA PHB*    NOT AVBL
$$

HIZ012>013-210200-
MOLOKAI-

CITY           SKY/WX    TMP DP  RH WIND       PRES   REMARKS
MOLOKAI AIRPT  SUNNY     84  68  58 NE14G28   29.98F
KALAUPAPA      NOT AVBL
MAKAPULAPAI*   NOT AVBL
MOLOKAI 1*     NOT AVBL
PUU ALII*      NOT AVBL
$$

HIZ016-210200-
KAHOOLAWE-

CITY           SKY/WX    TMP DP  RH WIND       PRES   REMARKS
KAHOOLAWE*     NOT AVBL
HAKIOAWA*      NOT AVBL
HONOKANAIA*      N/A     85  67  55 E20G38    29.91S
KANELOA*         N/A     81  68  65 E23G35    30.04F
KEALIALALO*    NOT AVBL
LUA MAKIKA*    NOT AVBL
$$

HIZ014>015-210200-
LANAI-

CITY           SKY/WX    TMP DP  RH WIND       PRES   REMARKS
LANAI CITY     LGT RAIN  82  67  60 NE17G26   30.02F
LANAI 1*       NOT AVBL
$$

HIZ017>028-210200-
MAUI-

CITY           SKY/WX    TMP DP  RH WIND       PRES   REMARKS
KAHULUI        MOSUNNY   88  66  48 NE20G32   29.95F HX  90
KAPALUA-W MAUI MOSUNNY   84  64  51 NE20G28   29.97F
HANA AIRPORT   NOT AVBL
HANA*          NOT AVBL
HALEAKALA SUMM   N/A     54  45  71 E10         N/A
MAALAEA BAY*   NOT AVBL
HALEAKALA*     NOT AVBL
KAUPO GAP*     NOT AVBL
KULA 1*          N/A     57  57  99 W6G12       N/A
$$

HIZ023>026-210200-
BIG ISLAND OF HAWAII COAST AND LOWER SLOPES-

CITY           SKY/WX    TMP DP  RH WIND       PRES   REMARKS
KAILUA KONA    PTSUNNY   84  69  60 SW10      29.93F
HILO           CLOUDY    78  72  81 W7        30.00S
HONOKAA*         N/A     77 N/A N/A VRB1        N/A
KAWAIHAE MWT*    N/A     86 N/A N/A W12         N/A
KAWAIHAE*      NOT AVBL
SOUTH POINT*     N/A     77 N/A N/A N18G28      N/A
UPOLU AIRPORT* NOT AVBL
KAMUELA*       NOT AVBL
HAKALAU*         N/A     59  58  96 E5          N/A
KALOKO-HONOKO* NOT AVBL
PALI 2*          N/A     73  63  68 SW12G22     N/A
KEALAKOMO*       N/A     77  70  78 NE13G23     N/A
KAUPULEHU*     NOT AVBL
KAPAPALA*        N/A     73  70  91 E7G20       N/A
LOWER KAHUKU*  NOT AVBL
PUHE CS*       NOT AVBL
PUHO CS*       NOT AVBL
PTA KEAMUKU*     N/A     75  61  60 NE22G32     N/A
WAIKOLOA*      NOT AVBL
$$

HIZ027>028-210200-
BIG ISLAND OF HAWAII INTERIOR AND SUMMMITS-

CITY           SKY/WX    TMP DP  RH WIND       PRES   REMARKS
BRADSHAW FIELD PTSUNNY   68  56  66 W6        30.31R
MK VISITOR CEN   N/A     52  48  87 S6          N/A
MAUNA KEA*       N/A     39  36  87 SW16        N/A
MAUNA LOA*       N/A    N/A N/A N/A MISG        N/A
MAUNA LOA 1*   NOT AVBL
PTA KIPUKA*      N/A     68  64  88 SE8G16      N/A
PTA RANGE 17*    N/A     72  63  73 E12G21      N/A
PTA WEST*        N/A     77  64  65 NW10G18     N/A
NENE CABIN*    NOT AVBL
AHUMOA*        NOT AVBL
PTA PORTABLE*  NOT AVBL
PUU MALI*        N/A     59  59 100 N10G24      N/A
$$

HIC003-210200-
NORTHWEST ISLANDS-

CITY           SKY/WX    TMP DP  RH WIND       PRES   REMARKS
MIDWAY ISLAND  CLOUDY    82  68  61 CALM      30.05F
MIDWAY NOS*    NOT AVBL
FRENCH FRIGATE NOT AVBL
$$

PHZ110>124-180-210200-
BUOY REPORTS

STATION/POSITION TIME  TEMP    WIND        PRES    WAVE   SWELL
                       AIR SEA DIR/SP/G            HT/PER HT/DIR
                 (UTC) (F)     (DEG/KT/KT) (MB)    (FT/S) (FT/D)
BUOY 51001       0050   81 82   80/ 14/ 17 1017.4F   7/ 8   5/110
BUOY 51101       0050   81 82   80/ 12/ 14 1017.9F   6/ 8   5/100
BUOY 51100       NOT AVBL
BUOY 51002       0050   81 81   80/ 16/ 19 1013.1F   7/ 9   5/ 90
BUOY 51003       0050   80 82   40/ 10/ 12 1014.2F   6/ 7   7/100
BUOY 51004       0050      80   50/ 14/ 17 1013.6F   6/ 8   5/100
WAIMEA BAY#      0002      80                N/A     4/ 8   2/320
MOKAPU POINT#    0004      81                N/A     7/ 8   2/ 90
LANAI#           NOT AVBL
BARBERS PT 2#    NOT AVBL
PAUWELA#         0039      81                N/A     6/ 8   2/350
HILO#            0057      81                N/A     7/ 8   2/120
KANEOHE BAY#     NOT AVBL
KANEOHE BAY 2#   NOT AVBL
HANALEI#         0022      82                N/A     5/ 7   2/320
KAHULUI HARBOR   0048           30/ 18/ 21   N/A
HONOLULU HARBOR  0042   83 81   50/  9/ 15 1016.0F
PEARL HARBOR#    0030      82                N/A     3/ 6   2/160
KILO NALU        NOT AVBL
HILO HARBOR      0048          250/  4/  5   N/A
MOKUOLOE         0036   81 82   60/ 10/ 13 1016.2F
NAWILIWILI       0042   81 84   50/ 12/ 16 1016.3F
WHOTS BUOY       NOT AVBL
BUOY 51028       NOT AVBL
$$

......................KEY........................................
  SKY/WX - SKY CONDITIONS/PRESENT WEATHER
  TMP    - TEMPERATURE IN FAHRENHEIT
  DWPT   - DEWPOINT IN FAHRENHEIT
  RH     - RELATIVE HUMIDITY IN PERCENT
  WIND   - DIRECTION AND SPEED /MPH FOR ISLANDS...KTS FOR BUOYS/
  PRES   - MEAN SEA LEVEL PRESSURE IN INCHES OF HG
  VSB    - VISIBILITY IN MILES
  HX     - HEAT INDEX
  WCI    - WIND CHILL INDEX
  VRB    - VARIABLE WIND DIRECTION
  N/A    - NOT AVAILABLE




USA.gov is the U.S. government's official web portal to all federal, state and local government web resources and services.